GALAXY 30 (G-30)

Last updated on Tue Oct 28 2025 00:02:51 GMT+0000 (Coordinated Universal Time)

1 46114U 20056C 25299.94885558 .00000048 00000+0 00000+0 0 9998 2 46114 0.0184 259.6118 0002536 314.5834 38.0029 1.00272963 18952
UTC large
Height (km)
Speed (km/s)
/
Latitude / Longitude
Inclination (degrees)
Orbital Period (minutes)
Azimuth
Elevation
Range (km)
Doppler Factor

Next 0 passes for location: London (51.5072 / 0.1276)

Sorry there are no passes over London.